This is the latest recevied weather packets stored in our database for station/object OE6JUE. If no packets are shown the sender has not sent any weather packets the latest 10 day(s).
| Time | Temp. | Humidity | Pressure | Rain* | Wind** | Luminosity | Snow |
|---|---|---|---|---|---|---|---|
| 1777569904 | 13.33° C | 22% | 1027 hPa | 0 mm | - | - | - |
| 1777569604 | 13.33° C | 22% | 1027 hPa | 0 mm | - | - | - |
| 1777569304 | 13.33° C | 22% | 1027 hPa | 0 mm | - | - | - |
| 1777569004 | 13.33° C | 22% | 1027 hPa | 0 mm | - | - | - |
| 1777568704 | 13.33° C | 22% | 1026.9 hPa | 0 mm | - | - | - |
| 1777568403 | 13.89° C | 22% | 1026.9 hPa | - | - | - | - |
| 1777568104 | 13.89° C | 22% | 1026.7 hPa | 0 mm | - | - | - |
| 1777567804 | 13.89° C | 22% | 1026.8 hPa | 0 mm | - | - | - |
| 1777567504 | 13.89° C | 22% | 1026.9 hPa | 0 mm | - | - | - |
| 1777567204 | 14.44° C | 22% | 1026.9 hPa | 0 mm | - | - | - |
| 1777566904 | 14.44° C | 22% | 1026.8 hPa | 0 mm | - | - | - |
| 1777566604 | 15° C | 22% | 1026.7 hPa | 0 mm | - | - | - |
| 1777566304 | 15.56° C | 22% | 1026.7 hPa | 0 mm | - | - | - |
| 1777566004 | 16.11° C | 22% | 1027 hPa | 0 mm | - | - | - |
| 1777565704 | 16.67° C | 22% | 1026.9 hPa | 0 mm | - | - | - |
| 1777565404 | 17.22° C | 22% | 1027 hPa | 0 mm | - | - | - |
| 1777565104 | 16.67° C | 22% | 1026.8 hPa | 0 mm | - | - | - |
| 1777564804 | 16.11° C | 22% | 1026.8 hPa | - | - | - | - |
| 1777564504 | 16.67° C | 22% | 1026.8 hPa | 0 mm | - | - | - |
| 1777564203 | 17.22° C | 22% | 1026.7 hPa | 0 mm | - | - | - |
| 1777563904 | 17.22° C | 22% | 1026.7 hPa | 0 mm | - | - | - |
| 1777563604 | 17.22° C | 22% | 1026.8 hPa | 0 mm | - | - | - |
| 1777563303 | 17.22° C | 22% | 1026.9 hPa | 0 mm | - | - | - |
| 1777563004 | 17.22° C | 22% | 1026.7 hPa | 0 mm | - | - | - |
| 1777562704 | 16.67° C | 22% | 1026.8 hPa | 0 mm | - | - | - |
* Rain latest hour (hover to see other rain measurements)
** Current wind speed in m/s (hover to see current wind gust speed)